Regional Weather Roundup
Issued by NWS

Home | Current Version | Previous Version | Graphics & Text | Print | Product List | Glossary On
Versions: 1 2 3 4 5 6 7 8 9 10 11 12 13 14 15 16 17 18 19 20 21 22 23 24 25 26 27 28 29 30 31 32 33 34 35 36 37 38 39 40 41 42 43 44 45 46 47 48 49 50
000
ASUS43 KDTX 020010
RWRMI
MICHIGAN HOURLY REGIONAL WEATHER ROUNDUP
NATIONAL WEATHER SERVICE DETROIT/PONTIAC MI
800 PM EDT FRI AUG 01 2014

NOTE: "FAIR" INDICATES FEW OR NO CLOUDS BELOW 12,000 FEET WITH NO
SIGNIFICANT WEATHER AND/OR OBSTRUCTION TO VISIBILITY.

MIZ047>049-052>055-059>063-066>070-074>076-081>083-020100-
SOUTHEAST LOWER MICHIGAN

CITY           SKY/WX    TMP DP  RH WIND       PRES   REMARKS
ADRIAN         PTCLDY    75  64  68 CALM      30.10R
6HR MIN TEMP:  70; 6HR MAX TEMP:  79; 6HR PCP:  0.06;

ALMA           MOCLDY    72  55  56 SW7       30.11R
ANN ARBOR      MOCLDY    76  63  64 SW3       30.08S
BAD AXE        MOCLDY    72  66  80 E3        30.10S
6HR MIN TEMP:  72; 6HR MAX TEMP:  79;

CARO           CLOUDY    72  65  77 CALM      30.08S
DETROIT CITY   PTCLDY    81  57  43 SW5       30.07S
6HR MIN TEMP:  79; 6HR MAX TEMP:  85;

DETROIT        CLOUDY    76  60  57 S5        30.08S
6HR MIN TEMP:  76; 6HR MAX TEMP:  81;

FLINT          CLOUDY    70  59  68 S7        30.08S
6HR MIN TEMP:  70; 6HR MAX TEMP:  82; 6HR PCP: TRACE;

GROSSE ILE     MOCLDY    73  64  73 CALM      30.07S
HILLSDALE      PTCLDY    74  60  62 NW3       30.11R
6HR MIN TEMP:  74; 6HR MAX TEMP:  81;

HOWELL         CLOUDY    69  57  65 W6        30.11R
6HR MIN TEMP:  69; 6HR MAX TEMP:  81;


CITY           SKY/WX    TMP DP  RH WIND       PRES   REMARKS
JACKSON        MOCLDY    73  62  68 VRB6      30.11R
6HR MIN TEMP:  73; 6HR MAX TEMP:  83;

LAMBERTVILLE   MOCLDY    73  59  60 CALM      30.08S
LANSING        LGT RAIN  62  58  86 VRB3      30.13R
6HR MIN TEMP:  61; 6HR MAX TEMP:  82; 6HR PCP:  1.13;

LAPEER         FAIR      70  64  80 CALM      30.10R
MASON          CLOUDY    65  60  82 CALM      30.11S
MONROE         MOCLDY    75  66  73 CALM      30.07R
MT. CLEMENS    MOCLDY    72  64  76 E3        30.07R
6HR MIN TEMP:  68; 6HR MAX TEMP:  80; 6HR PCP:  0.45;

PONTIAC        MOCLDY    76  59  55 N6        30.08R
6HR MIN TEMP:  76; 6HR MAX TEMP:  82;

PORT HOPE        N/A     69  64  84 E7        30.08F
6HR MIN TEMP:  69; 6HR MAX TEMP:  72;

PORT HURON     MOCLDY    72  63  73 CALM      30.09S
TRI CITIES     LGT RAIN  73  62  68 W12G18    30.09R
6HR MIN TEMP:  73; 6HR MAX TEMP:  83; 6HR PCP: TRACE;

TROY           PTCLDY    79  58  48 CALM      30.09R
SAGINAW HB     CLOUDY    72  61  68 CALM      30.07S
$$
MIZ043>046-050>051-056>058-064>065-071>073-077>080-020100-
SOUTHWEST LOWER MICHIGAN

CITY           SKY/WX    TMP DP  RH WIND       PRES   REMARKS
BATTLE CREEK   PTCLDY    74  59  59 CALM      30.12R
6HR MIN TEMP:  73; 6HR MAX TEMP:  82; 6HR PCP: TRACE;

BENTON HARBOR  MOSUNNY   70  62  76 W5        30.08R
6HR MIN TEMP:  70; 6HR MAX TEMP:  80;

BIG RAPIDS     MOSUNNY   73  62  68 S7        30.08R
6HR MIN TEMP:  67; 6HR MAX TEMP:  79;

COLDWATER      PTCLDY    74  62  66 NW6       30.11R
6HR MIN TEMP:  74; 6HR MAX TEMP:  83;

FREMONT        FAIR      74  57  55 CALM      30.08R
HOLLAND        MOSUNNY   75  61  61 W5        30.10R
6HR MIN TEMP:  75; 6HR MAX TEMP:  82;

GRAND RAPIDS   MOCLDY    73  60  63 SE13      30.12R
6HR MIN TEMP:  73; 6HR MAX TEMP:  85;

IONIA          LGT RAIN  64  60  87 SW9       30.10F
KALAMAZOO      PTCLDY    74  62  66 SE3       30.10R
6HR MIN TEMP:  68; 6HR MAX TEMP:  82; 6HR PCP:  0.06;

LUDINGTON      MOSUNNY   70  57  63 W3        30.08R
6HR MIN TEMP:  70; 6HR MAX TEMP:  74;

MARSHALL       MOCLDY    73  61  65 N6        30.11R
MOUNT PLEASANT PTCLDY    76  62  61 S6        30.09R
6HR MIN TEMP:  76; 6HR MAX TEMP:  83;

MUSKEGON       SUNNY     70  59  68 S3        30.08S
6HR MIN TEMP:  70; 6HR MAX TEMP:  79;

SOUTH HAVEN    MOSUNNY   71  65  80 NW3       30.08R
$$
MIZ016>042-020100-
NORTHERN LOWER MICHIGAN

CITY           SKY/WX    TMP DP  RH WIND       PRES   REMARKS
ALPENA         CLEAR     68  57  68 SE5       30.10R
6HR MIN TEMP:  68; 6HR MAX TEMP:  80;

BEAVER ISLAND  SUNNY     72  58  62 SE3       30.08R
6HR MIN TEMP:  72; 6HR MAX TEMP:  77;

BELLAIRE       PTSUNNY   75  58  54 CALM      30.06R
6HR MIN TEMP:  75; 6HR MAX TEMP:  81;

CADILLAC       PTSUNNY   71  59  64 W3        30.08F
CHARLEVOIX     SUNNY     72  56  57 CALM      30.10R
6HR MIN TEMP:  72; 6HR MAX TEMP:  76;

FRANKFORT      SUNNY     69  59  72 CALM      30.08S
GAYLORD        CLOUDY    74  52  46 NE7       30.09S
6HR MIN TEMP:  74; 6HR MAX TEMP:  78;

GRAYLING       MOCLDY    76  53  45 CALM      30.09S
HARBOR SPRINGS SUNNY     72  60  65 N3        30.08R
HOUGHTON LAKE  MOCLDY    73  60  63 SW6       30.09R
6HR MIN TEMP:  72; 6HR MAX TEMP:  80;

MANISTEE       MOSUNNY   72  57  60 W6        30.08S
OSCODA         PTCLDY    68  60  74 E7        30.09S
PELLSTON       MOSUNNY   74  52  46 N7        30.09R
6HR MIN TEMP:  74; 6HR MAX TEMP:  82;

ROGERS CITY    CLEAR     69  56  63 NE3       30.10S
TRAVERSE CITY  MOSUNNY   74  56  53 N3        30.05R
6HR MIN TEMP:  74; 6HR MAX TEMP:  81;

$$
MIZ007>008-015-020100-
EASTERN UPPER MICHIGAN

CITY           SKY/WX    TMP DP  RH WIND       PRES   REMARKS
KINROSS        CLOUDY    66  54  63 N5        30.11R
6HR MIN TEMP:  66; 6HR MAX TEMP:  75;

MACKINAC ISLAN SUNNY     66  54  65 NE7       30.10R
6HR MIN TEMP:  66; 6HR MAX TEMP:  74;

NEWBERRY       SUNNY     68  51  53 N7        30.09S
6HR MIN TEMP:  68; 6HR MAX TEMP:  75;

S. S. MARIE    SUNNY     66  50  56 NW6       30.10R
6HR MIN TEMP:  66; 6HR MAX TEMP:  74;

MUNISING         N/A     63  55  75 NE5       30.09S
6HR MIN TEMP:  63; 6HR MAX TEMP:  67;

$$
MIZ004>006-011>014-085-020100-
CENTRAL UPPER MICHIGAN

CITY           SKY/WX    TMP DP  RH WIND       PRES   REMARKS
MANISTIQUE     SUNNY     71  53  54 E3        30.07S
6HR MIN TEMP:  70; 6HR MAX TEMP:  74;

ESCANABA       MOSUNNY   70  55  60 SE6       30.07S
6HR MIN TEMP:  70; 6HR MAX TEMP:  75;

MENOMINEE      PTSUNNY   73  64  73 E7        30.04S
6HR MIN TEMP:  72; 6HR MAX TEMP:  79;

SAWYER-GWINN   PTSUNNY   63  52  67 N7        30.11R
$$
MIZ001>003-009>011-084-020100-
WESTERN UPPER MICHIGAN

CITY           SKY/WX    TMP DP  RH WIND       PRES   REMARKS
IRON MOUNTAIN  MOSUNNY   76  51  41 NW5       30.06R
6HR MIN TEMP:  76; 6HR MAX TEMP:  82;

HOUGHTON       MOSUNNY   63  50  62 E7        30.10R
6HR MIN TEMP:  63; 6HR MAX TEMP:  70;

COPPER HARBOR    N/A     63  51  65 VRB6      30.08F
6HR MIN TEMP:  61; 6HR MAX TEMP:  70;

$$

ABBREVIATIONS USED IN REMARKS
   TC - TEMPERATURE IN CELSIUS
  WCI - WIND CHILL INDEX
   HX - HEAT INDEX
  VSB - VISIBILITY



USA.gov is the U.S. government's official web portal to all federal, state and local government web resources and services.